Location: Ellingshausen
(50.5460°N, 10.4723°E)
Time: 05:54:39
(UTC+00:00)

Cosmos 1140 Rocket - Pass Details

Date: 18 January 2026
Orbit: 739 x 763 km, 74.1° (Epoch: 18 February)

Event Time Altitude Azimuth Distance (km) Brightness Sun altitude
Rises 06:11:18 0° 237° (WSW) 3,169 6.3 -9.2°
Reaches altitude 10° 06:13:56 10° 249° (WSW) 2,253 5.5 -8.8°
Maximum altitude 06:18:19 28° 308° (NW) 1,368 4.3 -8.2°
Drops below altitude 10° 06:22:46 10° 8° (N) 2,275 5.8 -7.5°
Sets 06:25:27 0° 20° (NNE) 3,208 6.7 -7.1°
